Location: Banska Bystrica
(0.0000°N, 19.1500°E)
Time: 02:33:19
(UTC+01:00)

SJ 16-02 - Pass Details

Date: 19 February 2019
Orbit: 606 x 617 km, 75.0° (Epoch: 19 March)

Event Time Altitude Azimuth Distance (km) Brightness Sun altitude
Rises 18:15:47 0° 6° (N) 2,867 4.6 -4.5°
Reaches altitude 10° 18:18:13 10° 16° (NNE) 1,967 3.7 -5.1°
Maximum altitude 18:22:06 31° 79° (ENE) 1,087 2.1 -6.1°
Drops below altitude 10° 18:26:00 10° 141° (SE) 1,977 3.7 -7.1°
Sets 18:28:27 0° 151° (SSE) 2,885 4.6 -7.7°
